Ogden, UT

11:13 PM MDT on June 25, 2017 (GMT -0600)
Ogden-Hinckley

Weather History for KOGD - January, 2012

Change the Weather History Date:

Wednesday, January 18, 2012

  Actual Average Record
Temperature  
Mean Temperature 32 °F -  
Max Temperature 39 °F 38 °F 53 °F (2015)
Min Temperature 26 °F 20 °F -14 °F (1984)
Degree Days  
Heating Degree Days 32    
Moisture  
Dew Point 27 °F    
Average Humidity 78    
Maximum Humidity 96    
Minimum Humidity 36    
Precipitation  
Precipitation 0.31 in - - ()
Sea Level Pressure  
Sea Level Pressure 30.09 in    
Wind  
Wind Speed 9 mph (South)    
Max Wind Speed 17 mph    
Max Gust Speed 29 mph    
Visibility 6 miles    
Events Fog , Rain , Snow    
Averages and records for this station are not official NWS values.
T = Trace of Precipitation, MM = Missing Value Source: NWS Daily Summary

Daily Weather History Graph

Daily Weather History Graph

Search for Another Location

Airport or City:

Trip Planner

Search our weather history database for the weather conditions in past years. The results will help you decide how hot, cold, wet, or windy it might be!

Date:

Astronomy

Jan. 18, 2012 Rise Set
Actual Time 7:50 AM MST 5:27 PM MST
Civil Twilight 7:19 AM MST 5:57 PM MST
Nautical Twilight 6:46 AM MST 6:31 PM MST
Astronomical Twilight 6:13 AM MST 7:04 PM MST
Moon 3:24 AM MST (1/18) 1:08 PM MST (1/18)
Length of Visible Light 10h 37m
Length of Day
9h 36m
Waning Crescent, 24% of the Moon is Illuminated
Jan 18
Waning Crescent
Jan 23
New
Jan 30
First Quarter
Feb 7
Full
Feb 14
Last Quarter

Hourly Weather History & Observations

Time (MST) Temp. Windchill Dew Point Humidity Pressure Visibility Wind Dir Wind Speed Gust Speed Precip Events Conditions
12:53 AM 26.1 °F 16.8 °F 9.0 °F 49% 30.16 in 10.0 mi North 9.2 mph - N/A   Mostly Cloudy
1:53 AM 26.1 °F 20.5 °F 9.0 °F 49% 30.16 in 10.0 mi WNW 4.6 mph - N/A   Overcast
2:53 AM 26.1 °F - 10.9 °F 53% 30.15 in 10.0 mi Calm Calm - N/A   Overcast
3:53 AM 27.0 °F 20.5 °F 10.9 °F 51% 30.13 in 10.0 mi SSE 5.8 mph - N/A   Overcast
4:53 AM 28.9 °F 23.9 °F 10.9 °F 47% 30.12 in 10.0 mi SW 4.6 mph - N/A   Overcast
5:53 AM 30.9 °F 25.2 °F 12.9 °F 47% 30.12 in 10.0 mi South 5.8 mph - N/A   Overcast
6:53 AM 30.0 °F 26.5 °F 12.9 °F 49% 30.15 in 10.0 mi NNW 3.5 mph - N/A   Overcast
7:53 AM 30.0 °F 26.5 °F 14.0 °F 51% 30.16 in 10.0 mi ESE 3.5 mph - N/A   Overcast
8:53 AM 30.9 °F 26.2 °F 17.1 °F 57% 30.16 in 10.0 mi SSE 4.6 mph - N/A   Overcast
10:53 AM 37.9 °F 32.7 °F 15.1 °F 39% 30.10 in 10.0 mi South 6.9 mph - N/A   Overcast
11:53 AM 39.9 °F 35.1 °F 15.1 °F 36% 30.08 in 10.0 mi SSW 6.9 mph - N/A   Overcast
12:53 PM 39.0 °F 29.9 °F 21.9 °F 50% 30.06 in 9.0 mi SSW 17.3 mph 24.2 mph N/A   Overcast
1:27 PM 37.4 °F 27.8 °F 26.6 °F 65% 30.05 in 7.0 mi SW 17.3 mph 25.3 mph N/A   Overcast
1:50 PM 39.2 °F 31.2 °F 26.6 °F 61% 30.05 in 10.0 mi WSW 13.8 mph 28.8 mph 0.00 in   Overcast
1:53 PM 39.0 °F 30.6 °F 26.1 °F 60% 30.09 in 10.0 mi WSW 15.0 mph 28.8 mph 0.00 in   Overcast
2:53 PM 36.0 °F 27.1 °F 28.9 °F 76% 30.09 in 5.0 mi SSW 13.8 mph 21.9 mph 0.00 in Snow Light Snow
3:15 PM 33.8 °F 27.7 °F 30.2 °F 87% 30.07 in 2.0 mi SSE 6.9 mph - 0.00 in Snow Light Snow
3:37 PM 33.8 °F 27.7 °F 30.2 °F 87% 30.07 in 1.2 mi SE 6.9 mph - 0.00 in Snow Light Snow
3:53 PM 33.1 °F 26.9 °F 32.0 °F 96% 30.12 in 1.0 mi SSE 6.9 mph - 0.01 in Snow Light Snow
3:57 PM 33.8 °F 27.7 °F 32.0 °F 93% 30.07 in 0.8 mi SSE 6.9 mph - 0.00 in Snow Light Snow
4:12 PM 33.8 °F 27.7 °F 32.0 °F 93% 30.06 in 0.5 mi SSE 6.9 mph - 0.02 in Fog , Snow Snow
4:43 PM 33.8 °F 27.0 °F 32.0 °F 93% 30.05 in 0.8 mi SSE 8.1 mph - 0.04 in Snow Light Snow
4:53 PM 33.1 °F 26.1 °F 32.0 °F 96% 30.08 in 0.8 mi SSE 8.1 mph - 0.05 in Snow Light Snow
5:21 PM 33.8 °F 27.0 °F 32.0 °F 93% 30.06 in 1.2 mi SSE 8.1 mph - 0.02 in Snow Light Snow
5:35 PM 33.8 °F 27.0 °F 32.0 °F 93% 30.07 in 1.8 mi SSE 8.1 mph - 0.03 in Snow Light Snow
5:53 PM 33.1 °F 24.9 °F 32.0 °F 96% 30.09 in 2.0 mi SSE 10.4 mph - 0.05 in Snow Light Snow
6:07 PM 33.8 °F 25.8 °F 32.0 °F 93% 30.06 in 2.0 mi SSE 10.4 mph - 0.02 in Snow Light Snow
6:23 PM 33.8 °F 25.3 °F 32.0 °F 93% 30.06 in 2.5 mi SSE 11.5 mph - 0.03 in Snow Light Snow
6:53 PM 33.1 °F 23.4 °F 32.0 °F 96% 30.10 in 2.0 mi South 13.8 mph - 0.05 in Snow Light Snow
7:01 PM 33.8 °F 24.3 °F 32.0 °F 93% 30.06 in 2.0 mi South 13.8 mph - 0.01 in Snow Light Snow
7:16 PM 33.8 °F 23.5 °F 32.0 °F 93% 30.06 in 1.8 mi SSE 16.1 mph - 0.02 in Snow Light Snow
7:33 PM 33.8 °F 23.5 °F 32.0 °F 93% 30.06 in 2.5 mi SSE 16.1 mph - 0.03 in Snow Light Snow
7:45 PM 33.8 °F 23.5 °F 32.0 °F 93% 30.06 in 3.0 mi SSE 16.1 mph - 0.04 in Snow Light Snow
7:53 PM 33.1 °F 23.0 °F 32.0 °F 96% 30.09 in 3.0 mi SSE 15.0 mph - 0.05 in Snow Light Snow
8:21 PM 33.8 °F 24.3 °F 32.0 °F 93% 30.07 in 2.5 mi South 13.8 mph - 0.03 in Snow Light Snow
8:33 PM 33.8 °F 24.3 °F 32.0 °F 93% 30.07 in 3.0 mi SSE 13.8 mph - 0.04 in Snow Light Snow
8:45 PM 33.8 °F 24.8 °F 32.0 °F 93% 30.07 in 2.5 mi SSE 12.7 mph - 0.05 in Snow Light Snow
8:53 PM 33.1 °F 24.9 °F 32.0 °F 96% 30.10 in 4.0 mi South 10.4 mph - 0.06 in Snow Light Snow
9:18 PM 33.8 °F 24.3 °F 32.0 °F 93% 30.06 in 7.0 mi SSE 13.8 mph - 0.01 in Rain Light Rain
9:27 PM 33.8 °F 24.8 °F 32.0 °F 93% 30.06 in 7.0 mi SSE 12.7 mph - 0.01 in Rain Light Rain
9:53 PM 35.1 °F 27.9 °F 33.1 °F 92% 30.07 in 8.0 mi SSE 9.2 mph - 0.02 in Rain Light Rain
10:53 PM 37.0 °F 29.3 °F 34.0 °F 89% 30.05 in 10.0 mi South 11.5 mph - 0.02 in Rain Light Rain
11:06 PM 37.4 °F 29.3 °F 33.8 °F 87% 30.05 in 10.0 mi SSE 12.7 mph - 0.00 in Rain Light Rain
11:53 PM 37.0 °F 28.1 °F 34.0 °F 89% 30.03 in 10.0 mi SSE 15.0 mph - 0.00 in Rain Light Rain